Regional Weather Roundup
Issued by NWS Albany, NY

Home | Current Version | Previous Version | Text Only | Print | Product List | Glossary On
Versions: 1 2 3 4 5 6 7 8 9 10 11 12 13 14 15 16 17 18 19 20 21 22 23 24 25 26 27 28 29 30 31 32 33 34 35 36 37 38 39 40 41 42 43 44 45 46 47 48 49 50
000
ASUS41 KALY 071410
RWRALY

NEW YORK STATE HOURLY WEATHER ROUNDUP
NATIONAL WEATHER SERVICE ALBANY NY
1000 AM EDT TUE JUL 07 2015

NOTE: "FAIR" INDICATES FEW OR NO CLOUDS BELOW 12,000 FEET WITH NO
SIGNIFICANT WEATHER AND/OR NO OBSTRUCTIONS TO VISIBILITY.

NYZ032-033-038>043-046>054-057>066-NYZ062>081-071500-
EAST


CITY           SKY/WX    TMP DP  RH WIND       PRES   REMARKS
ALBANY         CLOUDY    77  68  73 S12       30.01F
GLENS FALLS    PTSUNNY   76  68  76 S10       29.99F
POUGHKEEPSIE   PTSUNNY   80  70  71 S8        30.02F
MONTGOMERY     CLOUDY    79  71  76 SW7       30.03F
WHITE PLAINS   LGT RAIN  77  72  84 S9        30.05S
ISLIP          CLOUDY    77  73  87 S8        30.05F
NEW YORK CITY  PTSUNNY   82  71  69 S10G18    30.03F
CENTRAL PARK   CLOUDY    80  71  74 VRB6      30.06F
$$

NYZ005>009-017-018-044>046-055-056-071500-
CENTRAL


CITY           SKY/WX    TMP DP  RH WIND       PRES   REMARKS
FULTON         CLOUDY    76  70  82 S6        29.94F
SYRACUSE       CLOUDY    78  70  76 SW7       29.95R
ROME           LGT RAIN  71  69  93 SE6       29.99S
ELMIRA         PTSUNNY   78  70  76 SW9       29.98S
BINGHAMTON     CLOUDY    72  68  87 SW9       30.03F
MONTICELLO     CLOUDY    73  70  88 S10       30.08S
$$

NYZ026>034-041>043-071500-
NORTH


CITY           SKY/WX    TMP DP  RH WIND       PRES   REMARKS
WATERTOWN      PTSUNNY   76  70  82 VRB7G16   29.92F
FORT DRUM      NOT AVBL
MASSENA        LGT RAIN  74  69  85 S12       29.92F
SARANAC LAKE     N/A     73  65  75 MISG      29.98F
PLATTSBURGH    MOSUNNY   76  68  76 SE14      29.94F
$$

NYZ001>004-010>016-019>021-071500-
WEST


CITY           SKY/WX    TMP DP  RH WIND       PRES   REMARKS
NIAGARA FALLS  CLOUDY    78  66  66 SW13      29.91S
BUFFALO        PTSUNNY   79  66  64 S15       29.93S
DUNKIRK        MOSUNNY   78  67  68 S9G24     29.94S
JAMESTOWN      PTSUNNY   73  64  73 S12       30.02S
WELLSVILLE     MOSUNNY   74  64  71 S9        30.05S
ROCHESTER      PTSUNNY   79  69  71 SW9       29.93S
PENN YAN       CLOUDY    76  68  76 S8        29.97F
$$

             KEY
       WCI = WIND CHILL INDEX
       VSB = VISIBILITY
       HX  = HEAT INDEX
$$


USA.gov is the U.S. government's official web portal to all federal, state and local government web resources and services.